This is the latest recevied weather packets stored in our database for station/object SR3WXA. If no packets are shown the sender has not sent any weather packets the latest 1 day(s).
| Time | Temp. | Humidity | Pressure | Rain* | Wind** | Luminosity | Snow |
|---|---|---|---|---|---|---|---|
| 1778061996 | 16.11° C | 79% | 1005.4 hPa | 0 mm | - | 318 W/m² | - |
| 1778061696 | 15.56° C | 78% | 1005.6 hPa | 0 mm | - | 211 W/m² | - |
| 1778061436 | 15.56° C | 79% | 1005.5 hPa | 0 mm | - | 162 W/m² | - |
| 1778061396 | 15.56° C | 79% | 1005.5 hPa | 0 mm | - | 162 W/m² | - |
| 1778061096 | 15.56° C | 78% | 1005.5 hPa | 0 mm | - | 220 W/m² | - |
| 1778060796 | 15.56° C | 80% | 1005.5 hPa | 0 mm | - | 858 W/m² | - |
| 1778060496 | 15° C | 79% | 1005.4 hPa | 0 mm | - | 540 W/m² | - |
| 1778060196 | 15° C | 79% | 1005.4 hPa | 0 mm | - | 360 W/m² | - |
| 1778059939 | 15° C | 80% | 1005.5 hPa | 0 mm | - | 795 W/m² | - |
| 1778059896 | 15° C | 80% | 1005.5 hPa | 0 mm | - | 795 W/m² | - |
| 1778059406 | 15° C | 80% | 1005.6 hPa | 0 mm | - | 290 W/m² | - |
| 1778059371 | 15° C | 80% | 1005.6 hPa | 0 mm | - | 290 W/m² | - |
| 1778058205 | 14.44° C | 80% | 1005.4 hPa | 0 mm | - | 301 W/m² | - |
| 1778057303 | 13.89° C | 81% | 1005.3 hPa | 0 mm | - | 438 W/m² | - |
| 1778055226 | 13.89° C | 80% | 1005.4 hPa | 0 mm | - | 237 W/m² | - |
| 1778054358 | 13.89° C | 83% | 1005.1 hPa | 0 mm | - | 594 W/m² | - |
| 1778053726 | 12.78° C | 87% | 1005.2 hPa | 0 mm | - | 536 W/m² | - |
| 1778053457 | 12.78° C | 86% | 1005.3 hPa | 0 mm | - | 529 W/m² | - |
| 1778052271 | 12.22° C | 87% | 1005.3 hPa | 0 mm | - | 236 W/m² | - |
| 1778051680 | 12.22° C | 88% | 1005.5 hPa | 0 mm | - | 118 W/m² | - |
| 1778051325 | 12.22° C | 88% | 1005.5 hPa | 0 mm | - | 141 W/m² | - |
| 1778051025 | 12.22° C | 89% | 1005.5 hPa | 0 mm | - | 211 W/m² | - |
| 1778050759 | 11.67° C | 89% | 1005.2 hPa | 0 mm | - | 220 W/m² | - |
| 1778050726 | 11.67° C | 89% | 1005.2 hPa | 0 mm | - | 220 W/m² | - |
| 1778050157 | 11.67° C | 89% | 1005.3 hPa | 0 mm | - | 186 W/m² | - |
* Rain latest hour (hover to see other rain measurements)
** Current wind speed in m/s (hover to see current wind gust speed)